Regional Weather Roundup
Issued by NWS Sioux Falls, SD

Home | Current Version | Previous Version | Text Only | Print | Product List | Glossary On
Versions: 1 2 3 4 5 6 7 8 9 10 11 12 13 14 15 16 17 18 19 20 21 22 23 24 25 26 27 28 29 30 31 32 33 34 35 36 37 38 39 40 41 42 43 44 45 46 47 48 49 50
000
ASUS43 KFSD 032010
RWRFSD

WEATHER ROUNDUP FOR SE SOUTH DAKOTA/SW MINNESOTA/NW IOWA
NATIONAL WEATHER SERVICE SIOUX FALLS SD
300 PM CDT TUE MAY 03 2016

NOTE: "FAIR" INDICATES FEW OR NO CLOUDS BELOW 12,000 FEET WITH NO
SIGNIFICANT WEATHER AND OR OBSTRUCTIONS TO VISIBILITY.


SDZ038>040-050-052>070-032100-
SOUTHEAST SOUTH DAKOTA

CITY           SKY/WX    TMP DP  RH WIND       PRES   REMARKS
BROOKINGS      MOSUNNY   70  41  34 NW16G26   29.87F
CHAMBERLAIN    SUNNY     71  45  39 N13       29.98F
HURON          SUNNY     73  42  32 NW20G28   29.90F
MADISON        FAIR      68  41  37 NW20G30   29.90F
MITCHELL       SUNNY     71  46  40 NW24G30   29.93F
SIOUX FALLS    PTSUNNY   69  45  41 W16G33    29.90F
WINNER         FAIR      71  43  36 NW13      30.01F
YANKTON        SUNNY     66  45  45 W17G29    29.95F
$$

MNZ071-072-080-081-089-090-097-098-032100-
SOUTHWEST MINNESOTA

CITY           SKY/WX    TMP DP  RH WIND       PRES   REMARKS
FAIRMONT       PTSUNNY   66  41  39 W18       29.85F
JACKSON        MOSUNNY   66  41  39 W25       29.87F
LUVERNE        MOSUNNY   66  41  39 W21G28    29.90F
MARSHALL       MOSUNNY   69  37  30 NW21G28   29.82F
MONTEVIDEO     MOSUNNY   73  39  29 NW18G26   29.81F
PIPESTONE      MOSUNNY   70  30  23 NW18G29   29.88F
REDWOOD FALLS  MOSUNNY   71  39  31 NW17G30   29.80F
TRACY          SUNNY     72  40  32 NW18G29   29.84F
WINDOM         PTSUNNY   68  41  37 W22G30    29.85F
WORTHINGTON    CLOUDY    65  45  48 W24G32    29.88F
$$

IAZ001>003-012>014-020>022-031-032-NEZ013-014-SDZ071-032100-
NORTHWEST IOWA

CITY           SKY/WX    TMP DP  RH WIND       PRES   REMARKS
CHEROKEE       MOSUNNY   66  45  45 W16G24    29.92F
DENISON        MOSUNNY   66  45  45 W13G25    29.93F
ESTHERVILLE    CLOUDY    65  47  52 W24G31    29.88F
LE MARS        MOSUNNY   66  45  45 NW18G24   29.95F
ORANGE CITY    PTSUNNY   66  46  48 NW22G29   29.92F
SHELDON        CLOUDY    66  45  45 W24G32    29.90F
SIOUX CITY     PTSUNNY   68  46  45 NW17G23   29.95F
SPENCER        PTSUNNY   67  44  43 W20G33    29.90F
STORM LAKE     MOSUNNY   66  45  45 W23G30    29.93F
$$

ABBREVIATIONS USED IN REMARKS
   TC - TEMPERATURE IN CELSIUS
  WCI - WIND CHILL INDEX
   HX - HEAT INDEX
  VSB - VISIBILITY




USA.gov is the U.S. government's official web portal to all federal, state and local government web resources and services.